When you browse on this site, cookies collect data to enhance your experience and personalize the content and advertising you see.
Visit our Privacy Policy to learn more. By continuing to use the site, you agree to this use of cookies and data.
  • En España
  • Lista de países
  • Para 7 días
  • Temperatura del agua
  • Mapa Satelital
  • El tiempo en el mapa
  • Informadores
  • user-avatar
    Iniciar sesión

    Tiempo cada hora Akra

    Hoy, 18 Noviembre, Domingo

    Tiempo Temperatura Precipitaciones Viento Presión Humedad
    00:00 +28°C° 0 mm 3 mps 757 mmHg 86%
    01:00 +27°C° 0 mm 3 mps 757 mmHg 88%
    02:00 +27°C° 0 mm 3 mps 757 mmHg 89%
    03:00 +27°C° 0 mm 3 mps 757 mmHg 91%
    04:00 +27°C° 0 mm 3 mps 757 mmHg 92%
    05:00 +26°C° 0 mm 3 mps 757 mmHg 93%
    06:00 +26°C° 0 mm 3 mps 757 mmHg 94%
    07:00 +28°C° 0 mm 3 mps 757 mmHg 85%
    08:00 +30°C° 0 mm 3 mps 758 mmHg 76%
    09:00 +32°C° 0 mm 2 mps 758 mmHg 67%
    10:00 +34°C° 0 mm 2 mps 758 mmHg 61%
    11:00 +36°C° 0 mm 3 mps 757 mmHg 54%
    12:00 +37°C° 0 mm 3 mps 757 mmHg 47%
    13:00 +36°C° 0.5 mm 3 mps 757 mmHg 51%
    14:00 +36°C° 0.5 mm 4 mps 756 mmHg 56%
    15:00 +35°C° 0.5 mm 4 mps 755 mmHg 60%
    16:00 +33°C° 0 mm 4 mps 756 mmHg 64%
    17:00 +32°C° 0 mm 4 mps 756 mmHg 67%
    18:00 +30°C° 0 mm 4 mps 756 mmHg 71%
    19:00 +30°C° 0 mm 4 mps 757 mmHg 74%
    20:00 +29°C° 0 mm 3 mps 757 mmHg 77%
    21:00 +29°C° 0 mm 3 mps 758 mmHg 79%
    22:00 +29°C° 0.2 mm 3 mps 758 mmHg 81%
    23:00 +28°C° 0.2 mm 3 mps 758 mmHg 83%

    Mañana, 19 Noviembre, Lunes

    Tiempo Temperatura Precipitaciones Viento Presión Humedad
    00:00 +28°C° 0.2 mm 3 mps 757 mmHg 85%
    01:00 +28°C° 0 mm 3 mps 757 mmHg 86%
    02:00 +27°C° 0 mm 4 mps 757 mmHg 88%
    03:00 +27°C° 0 mm 4 mps 756 mmHg 89%
    04:00 +27°C° 0 mm 4 mps 756 mmHg 90%
    05:00 +27°C° 0 mm 4 mps 756 mmHg 90%
    06:00 +26°C° 0 mm 4 mps 757 mmHg 91%
    07:00 +28°C° 0 mm 4 mps 757 mmHg 83%
    08:00 +30°C° 0 mm 4 mps 758 mmHg 74%
    09:00 +33°C° 0 mm 4 mps 758 mmHg 66%
    10:00 +35°C° 0 mm 4 mps 758 mmHg 60%
    11:00 +36°C° 0 mm 4 mps 757 mmHg 54%
    12:00 +37°C° 0 mm 4 mps 757 mmHg 48%
    13:00 +37°C° 0 mm 4 mps 756 mmHg 49%
    14:00 +37°C° 0 mm 5 mps 756 mmHg 49%
    15:00 +37°C° 0 mm 5 mps 755 mmHg 50%
    16:00 +35°C° 0.1 mm 5 mps 755 mmHg 58%
    17:00 +33°C° 0.1 mm 5 mps 755 mmHg 67%
    18:00 +30°C° 0.1 mm 5 mps 755 mmHg 75%
    19:00 +30°C° 0 mm 5 mps 756 mmHg 78%
    20:00 +29°C° 0 mm 5 mps 757 mmHg 80%
    21:00 +29°C° 0 mm 4 mps 757 mmHg 83%
    22:00 +29°C° 0 mm 4 mps 757 mmHg 84%
    23:00 +29°C° 0 mm 4 mps 757 mmHg 85%

    Pasado mañana, 20 Noviembre, Martes

    Tiempo Temperatura Precipitaciones Viento Presión Humedad
    00:00 +28°C° 0 mm 4 mps 757 mmHg 87%
    01:00 +28°C° 0 mm 5 mps 757 mmHg 87%
    02:00 +28°C° 0 mm 5 mps 757 mmHg 88%
    03:00 +28°C° 0 mm 5 mps 756 mmHg 89%
    04:00 +28°C° 0 mm 5 mps 756 mmHg 89%
    05:00 +28°C° 0 mm 5 mps 757 mmHg 90%
    06:00 +27°C° 0 mm 5 mps 757 mmHg 90%
    07:00 +29°C° 0 mm 5 mps 757 mmHg 84%
    08:00 +30°C° 0 mm 4 mps 758 mmHg 78%
    09:00 +32°C° 0 mm 4 mps 759 mmHg 72%
    10:00 +34°C° 0.1 mm 4 mps 758 mmHg 66%
    11:00 +35°C° 0.1 mm 4 mps 758 mmHg 61%
    12:00 +36°C° 0.1 mm 4 mps 757 mmHg 55%
    13:00 +36°C° 0.1 mm 5 mps 757 mmHg 57%
    14:00 +35°C° 0.1 mm 5 mps 756 mmHg 58%
    15:00 +35°C° 0.1 mm 6 mps 756 mmHg 60%
    16:00 +34°C° 0.3 mm 6 mps 756 mmHg 67%
    17:00 +32°C° 0.3 mm 5 mps 756 mmHg 73%
    18:00 +30°C° 0.3 mm 5 mps 757 mmHg 80%
    19:00 +29°C° 0 mm 5 mps 757 mmHg 82%
    20:00 +29°C° 0 mm 5 mps 758 mmHg 84%
    21:00 +29°C° 0 mm 5 mps 759 mmHg 86%
    22:00 +28°C° 0.3 mm 5 mps 758 mmHg 87%
    23:00 +28°C° 0.3 mm 5 mps 758 mmHg 89%

    21 Noviembre, Miércoles

    Tiempo Temperatura Precipitaciones Viento Presión Humedad
    00:00 +28°C° 0.3 mm 5 mps 758 mmHg 90%
    01:00 +28°C° 0 mm 5 mps 758 mmHg 90%
    02:00 +27°C° 0 mm 5 mps 757 mmHg 91%
    03:00 +27°C° 0 mm 5 mps 756 mmHg 91%
    04:00 +27°C° 0 mm 5 mps 757 mmHg 92%
    05:00 +27°C° 0 mm 5 mps 757 mmHg 92%
    06:00 +27°C° 0 mm 5 mps 757 mmHg 93%
    07:00 +28°C° 0 mm 5 mps 758 mmHg 85%
    08:00 +30°C° 0 mm 5 mps 758 mmHg 78%
    09:00 +33°C° 0 mm 4 mps 758 mmHg 70%
    10:00 +34°C° 0 mm 5 mps 758 mmHg 65%
    11:00 +35°C° 0 mm 5 mps 758 mmHg 60%
    12:00 +37°C° 0 mm 5 mps 757 mmHg 54%
    13:00 +36°C° 0.1 mm 5 mps 757 mmHg 59%
    14:00 +35°C° 0.1 mm 6 mps 756 mmHg 63%
    15:00 +34°C° 0.1 mm 6 mps 755 mmHg 67%
    16:00 +33°C° 0.1 mm 6 mps 756 mmHg 71%
    17:00 +32°C° 0.1 mm 6 mps 756 mmHg 75%
    18:00 +30°C° 0.1 mm 6 mps 757 mmHg 79%
    19:00 +30°C° 0 mm 5 mps 757 mmHg 81%
    20:00 +29°C° 0 mm 5 mps 758 mmHg 83%
    21:00 +29°C° 0 mm 5 mps 758 mmHg 85%
    22:00 +28°C° 0 mm 5 mps 758 mmHg 86%
    23:00 +28°C° 0 mm 6 mps 758 mmHg 87%

    22 Noviembre, Jueves

    Tiempo Temperatura Precipitaciones Viento Presión Humedad
    00:00 +28°C° 0 mm 6 mps 758 mmHg 88%
    01:00 +28°C° 0 mm 5 mps 757 mmHg 89%
    02:00 +27°C° 0 mm 5 mps 757 mmHg 89%
    03:00 +27°C° 0 mm 5 mps 756 mmHg 90%
    04:00 +27°C° 0 mm 5 mps 756 mmHg 91%
    05:00 +27°C° 0 mm 5 mps 757 mmHg 91%
    06:00 +27°C° 0 mm 5 mps 757 mmHg 92%
    07:00 +28°C° 0 mm 5 mps 757 mmHg 84%
    08:00 +30°C° 0 mm 5 mps 758 mmHg 77%
    09:00 +33°C° 0 mm 5 mps 758 mmHg 69%
    10:00 +33°C° 0.1 mm 5 mps 758 mmHg 67%
    11:00 +34°C° 0.1 mm 5 mps 757 mmHg 64%
    12:00 +34°C° 0.1 mm 6 mps 757 mmHg 62%
    13:00 +34°C° 0.4 mm 6 mps 756 mmHg 63%
    14:00 +34°C° 0.4 mm 6 mps 756 mmHg 64%
    15:00 +34°C° 0.4 mm 6 mps 755 mmHg 65%
    16:00 +33°C° 0.4 mm 6 mps 756 mmHg 69%
    17:00 +32°C° 0.4 mm 5 mps 756 mmHg 74%
    18:00 +30°C° 0.4 mm 5 mps 757 mmHg 78%
    19:00 +29°C° 0.1 mm 5 mps 757 mmHg 80%
    20:00 +29°C° 0.1 mm 4 mps 758 mmHg 82%
    21:00 +28°C° 0.1 mm 4 mps 758 mmHg 84%
    22:00 +28°C° 0 mm 4 mps 758 mmHg 85%
    23:00 +28°C° 0 mm 4 mps 758 mmHg 86%

    23 Noviembre, Viernes

    Tiempo Temperatura Precipitaciones Viento Presión Humedad
    00:00 +27°C° 0 mm 4 mps 757 mmHg 88%
    01:00 +27°C° 0 mm 4 mps 757 mmHg 89%
    02:00 +27°C° 0 mm 4 mps 756 mmHg 89%
    03:00 +27°C° 0 mm 4 mps 756 mmHg 90%
    04:00 +27°C° 0 mm 4 mps 756 mmHg 91%
    05:00 +26°C° 0 mm 4 mps 757 mmHg 92%
    06:00 +26°C° 0 mm 4 mps 757 mmHg 93%
    07:00 +28°C° 0 mm 4 mps 757 mmHg 85%
    08:00 +30°C° 0 mm 3 mps 758 mmHg 77%
    09:00 +31°C° 0 mm 3 mps 758 mmHg 70%
    10:00 +34°C° 0 mm 3 mps 758 mmHg 65%
    11:00 +35°C° 0 mm 4 mps 757 mmHg 60%
    12:00 +36°C° 0 mm 4 mps 757 mmHg 55%
    13:00 +36°C° 0 mm 4 mps 756 mmHg 54%
    14:00 +36°C° 0 mm 4 mps 756 mmHg 54%
    15:00 +36°C° 0 mm 4 mps 755 mmHg 54%
    16:00 +34°C° 0 mm 4 mps 755 mmHg 60%
    17:00 +33°C° 0 mm 4 mps 756 mmHg 65%
    18:00 +32°C° 0 mm 4 mps 756 mmHg 70%
    19:00 +30°C° 0 mm 4 mps 756 mmHg 74%
    20:00 +30°C° 0 mm 4 mps 757 mmHg 78%
    21:00 +29°C° 0 mm 4 mps 757 mmHg 82%
    22:00 +29°C° 0 mm 4 mps 757 mmHg 83%
    23:00 +28°C° 0 mm 4 mps 757 mmHg 85%
    Mostrar más